Location: Academy at Carrie F Thomas
(32.8490°N, 97.2053°W)
Time: 07:53:11
(UTC+00:00)

Cosmos 1515 Rocket - Pass Details

Date: 27 June 2022
Orbit: 604 x 630 km, 82.5° (Epoch: 14 August)

Event Time Altitude Azimuth Distance (km) Brightness Sun altitude
Rises 10:07:51 0° 354° (N) 2,902 7.5 -13.8°
Reaches altitude 10° 10:10:05 10° 355° (N) 1,988 6.6 -13.5°
Maximum altitude 10:14:29 85° 82° (E) 622 3.6 -12.8°
Drops below altitude 10° 10:18:50 10° 173° (S) 1,958 5.8 -12.0°
Sets 10:21:02 0° 174° (S) 2,855 6.7 -11.7°
